Home > Weather > Fayetteville > Past weeks

Flag for U.S.A. Weather for the Past 2 Weeks in Fayetteville, North Carolina, U.S.A.

Now
37 °F

Mostly cloudy.


Feels Like: 32 °F
Forecast: 33 / 45 °F
Wind: 6 mph from West

Location: Fayetteville Regional Airport

Current Time: Feb 9, 2016 at 5:37:33 AM

Latest Report: Feb 9, 2016 at 4:53 AM


Visibility: 8 mi

Pressure: 29.61 "Hg

Humidity: 93%

Dew point: 35 °F

Location of FayettevilleLocation

Historic Weather in Fayetteville — Graph

°F

Fayetteville Temperature Yesterday

Maximum temperature yesterday: 57 °F (at 2:53 PM)
Minimum temperature yesterday: 30 °F (at 5:53 AM)
Average temperature yesterday: 43 °F

High & Low Weather Summary for the Past Weeks

 TemperatureHumidityPressure
High74 °F (Feb 1, 2:53 PM)100% (Jan 26, 8:04 AM)30.44 "Hg (Jan 26, 8:04 AM)
Low25 °F (Jan 25, 6:53 AM)26% (Jan 30, 12:53 PM)29.60 "Hg (Feb 9, 2:53 AM)
Average49 °F71%30.04 "Hg
* Reported Jan 25 3:53 AM — Feb 9 3:53 AM, Fayetteville, Weather by CustomWeather, © 2016

Note: Actual official high and low records may vary slightly from our data, if they occured in-between our weather recording intervals... More about our weather records

Advertising

Fayetteville Weather History for the Previous 24 Hours

 ConditionsComfort  
Time TempWeatherWind HumidityBarometerVisibility
3:53 AM
Tue, Feb 9
38 °FFog.6 mph93%29.60 "Hg6 mi
2:53 AM38 °FFog.7 mph93%29.60 "Hg6 mi
1:53 AM38 °FPassing clouds.7 mph93%29.61 "Hg7 mi
12:53 AM38 °FClear.7 mph93%29.61 "Hg7 mi
11:53 PM
Mon, Feb 8
41 °FClear.7 mph89%29.62 "Hg10 mi
10:53 PM41 °FClear.6 mph89%29.62 "Hg10 mi
9:53 PM39 °FPassing clouds.5 mph96%29.66 "Hg9 mi
8:53 PM40 °FPassing clouds.3 mph93%29.68 "Hg9 mi
7:53 PM42 °FPassing clouds.3 mph89%29.67 "Hg10 mi
6:53 PM44 °FLight rain. Mostly cloudy.10 mph82%29.70 "Hg7 mi
5:53 PM46 °FLight rain. Fog.13 mph86%29.70 "Hg6 mi
4:53 PM55 °FScattered clouds.10 mph37%29.62 "Hg10 mi
3:53 PM56 °FMore clouds than sun.8 mph34%29.63 "Hg10 mi
2:53 PM57 °FPassing clouds.12 mph33%29.66 "Hg10 mi
1:53 PM56 °FScattered clouds.14 mph34%29.68 "Hg10 mi
12:53 PM55 °FSunny.8 mph37%29.73 "Hg10 mi
11:53 AM54 °FSunny.13 mph38%29.75 "Hg10 mi
10:53 AM50 °FSunny.9 mph43%29.80 "Hg10 mi
9:53 AM46 °FSunny.8 mph50%29.83 "Hg10 mi
8:53 AM40 °FSunny.6 mph63%29.85 "Hg10 mi
7:53 AM32 °FSunny.6 mph82%29.84 "Hg10 mi
6:53 AM30 °FClear.3 mph85%29.83 "Hg10 mi
5:53 AM30 °FClear.5 mph82%29.84 "Hg10 mi
Weather by CustomWeather, © 2016

See weather overviewHow to use our weather pages